Weather History for Port Angeles, WA

Change the Weather History Date:

Tuesday, August 20, 2013

  Actual Average Record
Temperature  
Mean Temperature 58 °F -  
Max Temperature 69 °F 68 °F 84 °F (2011)
Min Temperature 48 °F 51 °F 42 °F (1987)
Degree Days  
Heating Degree Days 7    
Growing Degree Days 8 (Base 50)    
Moisture  
Dew Point 50 °F    
Average Humidity 78    
Maximum Humidity 97    
Minimum Humidity 52    
Precipitation  
Precipitation 0.00 in - - ()
Sea Level Pressure  
Sea Level Pressure 30.16 in    
Wind  
Wind Speed 8 mph (WNW)    
Max Wind Speed 12 mph    
Max Gust Speed -    
Visibility 8 miles    
Events Fog    
Averages and records for this station are not official NWS values.
T = Trace of Precipitation, MM = Missing Value Source: NWS Daily Summary

Daily Weather History Graph

Daily Weather History Graph

Search for Another Location

Airport:

Trip Planner

Search our weather history database for the weather conditions in past years. The results will help you decide how hot, cold, wet, or windy it might be!

Date:

Astronomy

Aug. 20, 2013 Rise Set
Actual Time 6:15 AM PDT 8:17 PM PDT
Civil Twilight 5:42 AM PDT 8:51 PM PDT
Nautical Twilight 5:00 AM PDT 9:32 PM PDT
Astronomical Twilight 4:14 AM PDT 10:18 PM PDT
Moon 7:47 PM PDT (8/20) 5:55 AM PDT (8/20)
Length of Visible Light 15h 08m
Length of Day
14h 01m
Full, 100% of the Moon is Illuminated
Aug 20
Full
Aug 20
Full
Aug 28
Last Quarter
Sep 5
New
Sep 12
First Quarter

Hourly Weather History & Observations

Time (PDT) Temp. Dew Point Humidity Pressure Visibility Wind Dir Wind Speed Gust Speed Precip Events Conditions
12:53 AM 57.0 °F 48.9 °F 74% 30.13 in 10.0 mi West 11.5 mph - N/A   Clear
1:53 AM 55.9 °F 48.0 °F 75% 30.13 in 10.0 mi West 9.2 mph - N/A   Clear
2:53 AM 53.1 °F 46.9 °F 80% 30.14 in 10.0 mi WNW 9.2 mph - N/A   Clear
3:53 AM 52.0 °F 46.9 °F 83% 30.14 in 10.0 mi NW 6.9 mph - N/A   Clear
4:53 AM 53.1 °F 48.0 °F 83% 30.14 in 10.0 mi NW 8.1 mph - N/A   Clear
5:33 AM 51.1 °F 50.0 °F 96% 30.16 in 5.0 mi NW 8.1 mph - N/A   Scattered Clouds
5:37 AM 51.1 °F 50.0 °F 96% 30.16 in 2.5 mi WNW 8.1 mph - N/A   Mostly Cloudy
5:42 AM 52.0 °F 50.0 °F 93% 30.16 in 1.0 mi WNW 8.1 mph - N/A   Mist
5:45 AM 52.0 °F 50.0 °F 93% 30.16 in 0.8 mi WNW 8.1 mph - N/A   Mist
5:53 AM 51.1 °F 50.0 °F 96% 30.17 in 0.5 mi WNW 9.2 mph - N/A Fog Fog
6:05 AM 51.1 °F 50.0 °F 96% 30.16 in 0.5 mi NW 9.2 mph - N/A Fog Fog
6:13 AM 51.1 °F 50.0 °F 96% 30.16 in 0.2 mi WNW 8.1 mph - N/A Fog Fog
6:28 AM 50.0 °F 48.9 °F 96% 30.17 in 1.0 mi West 5.8 mph - N/A   Mist
6:35 AM 50.0 °F 48.9 °F 96% 30.17 in 10.0 mi SW 3.5 mph - N/A   Scattered Clouds
6:53 AM 48.9 °F 48.0 °F 97% 30.17 in 10.0 mi Calm Calm - N/A   Clear
7:53 AM 55.9 °F 51.1 °F 84% 30.18 in 10.0 mi West 6.9 mph - N/A   Clear
8:53 AM 61.0 °F 50.0 °F 67% 30.19 in 10.0 mi Variable 4.6 mph - N/A   Clear
9:53 AM 62.1 °F 51.1 °F 67% 30.19 in 10.0 mi NNW 4.6 mph - N/A   Clear
10:53 AM 61.0 °F 51.1 °F 70% 30.19 in 10.0 mi NNW 8.1 mph - N/A   Clear
11:53 AM 63.0 °F 51.1 °F 65% 30.19 in 10.0 mi NNE 4.6 mph - N/A   Clear
12:53 PM 66.0 °F 51.1 °F 59% 30.18 in 10.0 mi North 8.1 mph - N/A   Clear
1:53 PM 66.0 °F 51.1 °F 59% 30.18 in 10.0 mi North 4.6 mph - N/A   Clear
2:53 PM 68.0 °F 50.0 °F 52% 30.17 in 10.0 mi Variable 5.8 mph - N/A   Clear
3:53 PM 66.9 °F 51.1 °F 57% 30.16 in 10.0 mi North 5.8 mph - N/A   Clear
4:53 PM 66.9 °F 51.1 °F 57% 30.14 in 10.0 mi North 5.8 mph - N/A   Clear
5:53 PM 64.0 °F 52.0 °F 65% 30.14 in 10.0 mi NW 6.9 mph - N/A   Clear
6:53 PM 60.1 °F 50.0 °F 69% 30.13 in 10.0 mi NW 6.9 mph - N/A   Clear
7:53 PM 59.0 °F 50.0 °F 72% 30.13 in 10.0 mi West 3.5 mph - N/A   Clear
8:53 PM 55.0 °F 48.0 °F 77% 30.13 in 10.0 mi West 3.5 mph - N/A   Clear
9:53 PM 54.0 °F 48.0 °F 80% 30.13 in 10.0 mi SW 6.9 mph - N/A   Clear
10:53 PM 59.0 °F 48.9 °F 69% 30.12 in 10.0 mi WSW 10.4 mph - N/A   Clear
11:53 PM 57.9 °F 48.0 °F 70% 30.11 in 10.0 mi West 8.1 mph - N/A   Clear